COSMOS 2251 DEB, 33984

Orbit data source: Space-Track

COSMOS 2251 DEB, 33984 is space debris in LEO originally from a launch on Wed, 16 Jun 1993 UTC launched from the Plesetsk Missile And Space Complex (PKMTR). The debris from Iridium 33, an American commercial communications satellite, has been tracked extensively since its accidental collision with the defunct Russian satellite Cosmos 2251 in 2009. This event, occurring at high speed in low Earth orbit (LEO), generated thousands of pieces of space debris, significantly increasing the risk of further collisions. The Iridium 33 debris cloud has impacted space traffic management and orbital debris mitigation strategies, making it a subject of ongoing study in space situational awareness.

Loading next visibility...
Identifier
33984, 1993-036FT
Orbit
LEO
Country
Flag of CISCIS
Related business
Manufacturer
Unknown
Mission
Spacecraft
Bus & Motor
Unknown
Mass
Unknown
Launch date (UTC)
1993-06-16 (33 years ago)
Launch vehicle
Unknown
Launch site
Plesetsk Missile And Space Complex (PKMTR)
Object type
Payload
Rocket body
Debris
Shape & HBR
Unknown shape, 0.2 m
Radar Cross Section
Small (<0.1 m²)

Expand to show TLE details & history
Last TLE update: 7 hours ago

TLE from 7 hours ago
0 COSMOS 2251 DEB
1 33984U 93036FT  26123.14079338  .00004467  00000-0  78512-3 0  9994
2 33984  74.0081  73.7390 0025360 230.8364 148.5562 14.67745712911400
Epoch: 2026-05-03T03:22Z
TLE epoch observation values (Epoch: 2026-05-03T03:22:44.548Z)
Latitude
18.76126°
Longitude
167.56107°
Altitude
685.667 km
Speed
7.507 km/s
True Right ascension
05h 17m 10s
True Declination
18° 39' 21"
Sunlit
Object was in daylight at epoch
Visualization orbit readout
Latitude
Unknown
Longitude
Unknown
Altitude
Unknown
Speed
Unknown
Apparent Right ascension
Unknown
Apparent Declination
Unknown
Sunlit
N/A
Visualization observer readout
Local Sidereal Time
17:54:41
Azimuth
Unknown
Elevation
Unknown
Doppler factor
Unknown
Orbital elements
Apogee altitude
683.729 km
Perigee altitude
648.002 km
Semi-major axis
7,044.002 km
Eccentricity
0.00254
Inclination
74.0081°
RAAN
73.739°
Arg. of periapsis
230.8364°
True anomaly
148.70739°
Mean anomaly
148.5562°
Eccentric anomaly
148.63183°
Mean motion
3.67125 °/min
Orbital period
98.06 mins
BSTAR
0.00078512

Documentation

Showing up to 5 results
|